Location: Alfortville
(48.8058°N, 2.4204°E)
Time: 05:08:41
(UTC+00:00)

USA 229 DEB - Pass Details

Date: 04 June 2022
Orbit: 934 x 1278 km, 63.4° (Epoch: 24 May)

Event Time Altitude Azimuth Distance (km) Brightness Sun altitude
Rises 23:04:56 0° 315° (NW) 3,994 7.6 -18.0°
Reaches altitude 10° 23:07:46 10° 307° (NW) 3,079 6.8 -18.1°
Maximum altitude 23:14:25 37° 244° (WSW) 1,807 4.7 -18.3°
Enters shadow 23:18:12 24° 197° (SSW) 2,335 4.9 -18.3°
